Regional Weather Roundup
Issued by NWS

Home | Current Version | Previous Version | Text Only | Print | Product List | Glossary Off
Versions: 1 2 3 4 5 6 7 8 9 10 11 12 13 14 15 16 17 18 19 20 21 22 23 24 25 26 27

000
ASUS45 KBOU 241007
RWRCO

WEATHER ROUNDUP FOR COLORADO
NATIONAL WEATHER SERVICE DENVER/BOULDER CO
400 AM MDT FRI OCT 24 2014

NOTE: "FAIR" INDICATES FEW OR NO CLOUDS BELOW 12000 FEET WITH NO
SIGNIFICANT WEATHER AND/OR OBSTRUCTIONS TO VISIBILITY.

COZ001>005-013-030-031-241100-
...NORTHWEST COLORADO...

CITY           SKY/WX    TMP DP  RH WIND       PRES   REMARKS
CRAIG          CLEAR     32  28  85 CALM      30.27F
HAYDEN         CLEAR     37  28  70 CALM      30.28S
MEEKER         CLEAR     38  32  79 CALM      30.28S
MOUNT WERNER   NOT AVBL
STEAMBOAT SPGS CLEAR     36  30  78 CALM      30.31R
WALDEN         MOCLDY    41  23  48 E6        30.32R
$$

COZ006>008-011-241100-
...WEST CENTRAL VALLEYS...

CITY           SKY/WX    TMP DP  RH WIND       PRES   REMARKS
GRAND JUNCTION CLEAR     50  37  61 E13       30.22F
MONTROSE       CLEAR     42  32  67 S6        30.31S
EAGLE          NOT AVBL
RIFLE          CLEAR     37  34  89 CALM      30.28F
DELTA          CLEAR     47  34  61 NE7       30.28S
NUCLA          CLEAR     45  30  57 SE9       30.33F
$$

COZ017>023-064>068-241100-
...SOUTHWEST COLORADO...

CITY           SKY/WX    TMP DP  RH WIND       PRES   REMARKS
DURANGO        PTCLDY    38  33  82 N6        30.35F
CORTEZ         CLEAR     36  29  75 E7        30.31F
PAGOSA SPRINGS PTCLDY    37  35  95 CALM      30.40F
TELLURIDE      CLEAR     41  22  46 SE7       30.48F
WOLF CREEK PAS CLEAR     36  28  75 SW14        N/A
$$

COZ009-010-012-014-032>034-037-058>063-241100-
...CENTRAL COLORADO...

CITY           SKY/WX    TMP DP  RH WIND       PRES   REMARKS
ASPEN          CLEAR     33  25  72 S7        30.36F WCI  27
BUENA VISTA    PTCLDY    33  26  75 NW6       30.38S WCI  27
COPPER MTN     PTCLDY    41  12  30 S16       30.55F
BERTHOUD PASS  FAIR      34  32  93 W30G41    30.52S WCI  20
COTTONWOOD PAS PTCLDY    48  16  27 SW3       30.46S
GUNNISON       CLEAR     30  25  80 CALM      30.46S
KREMMLING      CLEAR     32  28  86 CALM        N/A
LEADVILLE      PTCLDY    33  18  53 N5        30.45F WCI  29
MONARCH PASS   CLEAR     34  25  69 SW25      30.67S WCI  21
SALIDA         PTCLDY    46  26  45 NW14G22   30.42S
SUNLIGHT       PTCLDY    39  27  60 CALM      30.50F
WILKERSON PASS NOT AVBL
$$

COZ069>075-241100-
...SAN LUIS VALLEY/SANGRE DE CRISTO MOUNTAINS...

CITY           SKY/WX    TMP DP  RH WIND       PRES   REMARKS
ALAMOSA        PTCLDY    32  26  78 CALM      30.38F
LA VETA PASS   PTCLDY    41  28  60 S20G29    30.44S
SAGUACHE       NOT AVBL
$$

COZ035-036-038>040-241100-
...NORTHERN COLORADO FRONT RANGE...

CITY           SKY/WX    TMP DP  RH WIND       PRES   REMARKS
DENVER INTL AP CLOUDY    54  31  41 S5        30.13F
DMNS CITY PARK   N/A     53  34  49 E5        30.13S
AURORA         MOCLDY    56  29  34 S12       30.15F
FRONT RANGE AP CLOUDY    54  34  47 S9        30.15S
ERIE MUNI ARPT CLOUDY    64  25  23 SW5       30.11S
BOULDER MUN AP CLOUDY    68  23  18 SW12G21   30.11F
CENTENNIAL     CLOUDY    60  25  26 S13       30.16F
BROOMFIELD     CLOUDY    63  23  22 SE6       30.15S
FORT COLLINS   CLOUDY    48  37  66 NW6       30.13S
LONGMONT       CLOUDY    50  36  58 CALM      30.13S
$$

COZ041-046-047-076>085-087-088-241100-
...PIKES PEAK/PALMER DIVIDE AND SOUTHERN FOOTHILLS...

CITY           SKY/WX    TMP DP  RH WIND       PRES   REMARKS
COLO. SPRINGS  CLOUDY    48  33  56 N8        30.22S
A. F. ACADEMY  CLOUDY    52  28  39 VRB2      30.22S
ELLICOTT       NOT AVBL
FALCON         CLOUDY    46  29  50 NW7       30.24F
FORT CARSON    MOCLDY    46  32  58 NW5       30.18F
LIMON          PTCLDY    43  35  73 N9        30.15F
MONUMENT HILL  CLOUDY    46  25  42 S7        30.24S
TRINIDAD       CLEAR     51  34  52 W12       30.21F
$$

COZ042>045-048>051-090-091-241100-
...NORTHEAST COLORADO...

CITY           SKY/WX    TMP DP  RH WIND       PRES   REMARKS
GREELEY ARPT   CLOUDY    46  34  61 NW3       30.11F
AKRON          CLOUDY    54  34  46 SW12      30.09F
BURLINGTON     CLEAR     53  40  61 SW9       30.08F
WRAY           PTCLDY    54  38  56 W9        30.05S
STERLING       CLOUDY    45  39  81 S6        30.06S
HOLYOKE        NOT AVBL
FORT MORGAN    CLOUDY    46  35  64 S3        30.09S
$$

COZ086-089-092>099-241100-
...SOUTHEAST COLORADO...

CITY           SKY/WX    TMP DP  RH WIND       PRES   REMARKS
PUEBLO         PTCLDY    42  34  73 W7        30.14F
LA JUNTA       CLEAR     48  36  63 CALM      30.12S
LAMAR          CLEAR     40  38  93 CALM      30.08F
SPRINGFIELD      N/A     48  44  86 VRB3      30.12F
$$



USA.gov is the U.S. government's official web portal to all federal, state and local government web resources and services.